User: anonymous   Login
Location: Newark
(45.2500°N, 7.5833°E)
Time: 09:55:06
(UTC+00:00)
Language:

BEESAT 2 - Orbit

View from above orbital plane
View from above orbital plane
View from above satellite
View from above satellite

Ground track
Ground track

The orbit data is extracted from the following two-line orbital elements,

1 39136U 13015G   21026.18683913  .00002188  00000-0  11507-3 0  9998
2 39136  64.8743 307.5972 0028770 262.5646  97.2212 15.18241429429313
Epoch (UTC): 26 January 2021 04:29:02
Eccentricity: 0.0028770
inclination: 64.8743°
perigee height: 491 km
apogee height: 531 km
right ascension of ascending node: 307.5972°
argument of perigee: 262.5646°
revolutions per day: 15.18241429
mean anomaly at epoch: 97.2212°
orbit number at epoch: 42931

The dashed part of the orbit path shows where the satellite is in the earth's shadow,  

DLR